| time (UTC) | temp C | wind direction | speed KPH | gust KPH | rain 1hr cm | rain 24hr cm | rain mn cm | humidity % | barometer mb |
| 20260505114536 | 20 | 98 | 1.6 | 6.4 | 0.00 | 0.10 | 0.00 | 93 | 1013.1 |
| 20260505114011 | 20 | 106 | 1.6 | 4.8 | 0.00 | 0.10 | 0.00 | 93 | 1013.0 |
| 20260505113510 | 20 | 105 | 1.6 | 6.4 | 0.00 | 0.10 | 0.00 | 92 | 1013.0 |
| 20260505113049 | 20 | 117 | 3.2 | 6.4 | 0.00 | 0.10 | 0.00 | 93 | 1013.0 |
| 20260505112514 | 20 | 122 | 3.2 | 9.7 | 0.00 | 0.10 | 0.00 | 92 | 1013.1 |
| 20260505112013 | 20 | 122 | 3.2 | 9.7 | 0.00 | 0.10 | 0.00 | 92 | 1013.1 |
| 20260505111538 | 20 | 99 | 1.6 | 6.4 | 0.00 | 0.10 | 0.00 | 92 | 1013.1 |
| 20260505111015 | 20 | 84 | 1.6 | 6.4 | 0.00 | 0.10 | 0.00 | 92 | 1013.1 |
| 20260505110511 | 20 | 98 | 0.0 | 3.2 | 0.00 | 0.10 | 0.00 | 92 | 1013.1 |
| 20260505102013 | 21 | 84 | 0.0 | 4.8 | 0.00 | 0.10 | 0.00 | 92 | 1014.1 |
| 20260505101539 | 21 | 94 | 0.0 | 4.8 | 0.00 | 0.10 | 0.00 | 92 | 1014.1 |
| 20260505101013 | 21 | 86 | 0.0 | 4.8 | 0.00 | 0.10 | 0.00 | 93 | 1014.1 |
| 20260505100512 | 21 | 95 | 0.0 | 3.2 | 0.00 | 0.10 | 0.00 | 93 | 1014.1 |
| 20260505100039 | 21 | 101 | 0.0 | 4.8 | 0.00 | 0.10 | 0.00 | 93 | 1014.4 |
| 20260505095511 | 21 | 111 | 0.0 | 3.2 | 0.00 | 0.10 | 0.10 | 93 | 1014.3 |
| 20260505095011 | 21 | 106 | 0.0 | 4.8 | 0.00 | 0.10 | 0.10 | 93 | 1014.3 |
| 20260505094536 | 21 | 113 | 0.0 | 4.8 | 0.00 | 0.10 | 0.10 | 93 | 1014.4 |
| 20260505094015 | 21 | 96 | 1.6 | 4.8 | 0.00 | 0.10 | 0.10 | 93 | 1014.4 |
| 20260505093513 | 21 | 107 | 0.0 | 4.8 | 0.00 | 0.10 | 0.10 | 93 | 1014.5 |
| 20260505093035 | 21 | 109 | 0.0 | 4.8 | 0.00 | 0.10 | 0.10 | 94 | 1014.5 |
| 20260505092517 | 21 | 103 | 0.0 | 3.2 | 0.00 | 0.10 | 0.10 | 94 | 1014.6 |
| 20260505092013 | 21 | 113 | 0.0 | 4.8 | 0.00 | 0.10 | 0.10 | 94 | 1014.5 |
| 20260505091540 | 21 | 105 | 0.0 | 4.8 | 0.00 | 0.10 | 0.10 | 94 | 1014.6 |
| 20260505091013 | 21 | 103 | 0.0 | 4.8 | 0.00 | 0.10 | 0.10 | 94 | 1014.5 |
| 20260505090514 | 21 | 103 | 0.0 | 4.8 | 0.00 | 0.10 | 0.10 | 94 | 1014.5 |
| 20260505090038 | 21 | 111 | 0.0 | 4.8 | 0.00 | 0.10 | 0.10 | 93 | 1014.5 |
| 20260505085518 | 21 | 103 | 0.0 | 4.8 | 0.00 | 0.10 | 0.10 | 94 | 1014.5 |
| 20260505085014 | 21 | 102 | 0.0 | 4.8 | 0.00 | 0.10 | 0.10 | 94 | 1014.4 |
| 20260505084547 | 21 | 104 | 0.0 | 3.2 | 0.00 | 0.10 | 0.10 | 93 | 1014.4 |
| 20260505084014 | 21 | 106 | 0.0 | 4.8 | 0.00 | 0.10 | 0.10 | 93 | 1014.5 |
| 20260505083512 | 21 | 117 | 0.0 | 4.8 | 0.00 | 0.10 | 0.10 | 93 | 1014.5 |
| 20260505083046 | 21 | 96 | 0.0 | 3.2 | 0.00 | 0.10 | 0.10 | 93 | 1014.4 |
| 20260505082514 | 21 | 104 | 0.0 | 3.2 | 0.00 | 0.10 | 0.10 | 93 | 1014.6 |
| 20260505082012 | 21 | 100 | 0.0 | 3.2 | 0.00 | 0.10 | 0.10 | 94 | 1014.5 |
| 20260505081549 | 21 | 89 | 0.0 | 4.8 | 0.00 | 0.10 | 0.10 | 94 | 1014.5 |
| 20260505081015 | 21 | 91 | 1.6 | 4.8 | 0.00 | 0.10 | 0.10 | 94 | 1014.6 |
| 20260505080513 | 21 | 89 | 0.0 | 4.8 | 0.00 | 0.10 | 0.10 | 94 | 1014.7 |
| 20260505080040 | 21 | 84 | 0.0 | 4.8 | 0.00 | 0.10 | 0.10 | 94 | 1014.6 |
| 20260505075516 | 21 | 107 | 0.0 | 4.8 | 0.00 | 0.10 | 0.10 | 94 | 1014.6 |
| 20260505075011 | 21 | 98 | 0.0 | 6.4 | 0.00 | 0.10 | 0.10 | 94 | 1014.6 |
| 20260505074539 | 21 | 78 | 0.0 | 4.8 | 0.00 | 0.10 | 0.10 | 94 | 1014.6 |
| 20260505074014 | 21 | 94 | 0.0 | 4.8 | 0.00 | 0.10 | 0.10 | 94 | 1014.7 |
| 20260505073514 | 21 | 107 | 0.0 | 3.2 | 0.00 | 0.10 | 0.10 | 95 | 1014.8 |
| 20260505073039 | 21 | 90 | 0.0 | 4.8 | 0.00 | 0.10 | 0.10 | 94 | 1014.9 |
| 20260505072512 | 21 | 103 | 0.0 | 3.2 | 0.00 | 0.10 | 0.10 | 95 | 1014.8 |
| 20260505072019 | 21 | 103 | 0.0 | 3.2 | 0.00 | 0.10 | 0.10 | 95 | 1014.6 |
| 20260505071545 | 21 | 98 | 0.0 | 3.2 | 0.00 | 0.10 | 0.10 | 94 | 1014.6 |
| 20260505071015 | 21 | 100 | 0.0 | 3.2 | 0.00 | 0.10 | 0.10 | 94 | 1014.6 |
| 20260505070517 | 21 | 101 | 0.0 | 3.2 | 0.00 | 0.10 | 0.10 | 95 | 1014.6 |
| 20260505070045 | 21 | 97 | 0.0 | 3.2 | 0.00 | 0.10 | 0.10 | 95 | 1014.5 |
| 20260505065517 | 21 | 94 | 0.0 | 3.2 | 0.00 | 0.10 | 0.10 | 95 | 1014.5 |
| 20260505065012 | 21 | 96 | 0.0 | 3.2 | 0.00 | 0.10 | 0.10 | 95 | 1014.5 |
| 20260505064540 | 21 | 84 | 0.0 | 3.2 | 0.00 | 0.10 | 0.10 | 95 | 1014.5 |
| 20260505064017 | 22 | 88 | 0.0 | 3.2 | 0.00 | 0.10 | 0.10 | 95 | 1014.4 |
| 20260505063514 | 21 | 100 | 0.0 | 3.2 | 0.00 | 0.10 | 0.10 | 95 | 1014.4 |
| 20260505063047 | 22 | 92 | 0.0 | 3.2 | 0.00 | 0.10 | 0.10 | 95 | 1014.4 |
| 20260505062515 | 22 | 71 | 0.0 | 3.2 | 0.00 | 0.10 | 0.10 | 95 | 1014.4 |
| 20260505062013 | 22 | 111 | 0.0 | 4.8 | 0.00 | 0.10 | 0.10 | 95 | 1014.3 |
| 20260505061546 | 22 | 106 | 0.0 | 3.2 | 0.00 | 0.10 | 0.10 | 96 | 1014.2 |
| 20260505061013 | 22 | 119 | 0.0 | 3.2 | 0.00 | 0.10 | 0.10 | 96 | 1014.1 |
| 20260505060516 | 22 | 89 | 0.0 | 3.2 | 0.00 | 0.10 | 0.10 | 96 | 1014.1 |
| 20260505060051 | 22 | 93 | 0.0 | 3.2 | 0.00 | 0.10 | 0.10 | 96 | 1014.1 |
| 20260505055513 | 22 | 95 | 0.0 | 1.6 | 0.00 | 0.10 | 0.10 | 96 | 1014.1 |
| 20260505055013 | 22 | 98 | 0.0 | 3.2 | 0.00 | 0.10 | 0.10 | 96 | 1014.2 |
| 20260505054549 | 22 | 94 | 0.0 | 4.8 | 0.00 | 0.10 | 0.10 | 96 | 1014.1 |
| 20260505054017 | 22 | 107 | 0.0 | 4.8 | 0.00 | 0.10 | 0.10 | 96 | 1014.0 |
| 20260505053513 | 22 | 69 | 0.0 | 1.6 | 0.00 | 0.10 | 0.10 | 96 | 1014.0 |
| 20260505053111 | 22 | 78 | 0.0 | 1.6 | 0.00 | 0.10 | 0.10 | 96 | 1013.9 |
| 20260505052516 | 22 | 78 | 0.0 | 1.6 | 0.00 | 0.10 | 0.10 | 96 | 1013.9 |
| 20260505052016 | 22 | 78 | 0.0 | 1.6 | 0.00 | 0.10 | 0.10 | 96 | 1013.9 |
| 20260505051538 | 22 | 83 | 0.0 | 1.6 | 0.00 | 0.10 | 0.10 | 96 | 1013.9 |
| 20260505051014 | 22 | 83 | 0.0 | 1.6 | 0.00 | 0.10 | 0.10 | 96 | 1013.9 |
| 20260505050516 | 22 | 83 | 0.0 | 1.6 | 0.00 | 0.10 | 0.10 | 96 | 1013.9 |
| 20260505041550 | 23 | 317 | 0.0 | 1.6 | 0.00 | 0.10 | 0.10 | 94 | 1013.8 |
| 20260505041016 | 23 | 317 | 0.0 | 1.6 | 0.00 | 0.10 | 0.10 | 94 | 1013.7 |
| 20260505040514 | 23 | 317 | 0.0 | 1.6 | 0.00 | 0.10 | 0.10 | 94 | 1013.7 |
| 20260505040051 | 23 | 317 | 0.0 | 4.8 | 0.00 | 0.10 | 0.10 | 93 | 1013.7 |
| 20260505035514 | 23 | 317 | 0.0 | 4.8 | 0.00 | 0.10 | 0.10 | 92 | 1013.7 |
| 20260505035013 | 23 | 324 | 0.0 | 0.0 | 0.00 | 0.10 | 0.10 | 93 | 1013.6 |
| 20260505034611 | 23 | 324 | 0.0 | 4.8 | 0.00 | 0.10 | 0.10 | 93 | 1013.6 |
| 20260505034016 | 23 | 324 | 0.0 | 4.8 | 0.00 | 0.10 | 0.10 | 92 | 1013.6 |
| 20260505033521 | 23 | 319 | 0.0 | 4.8 | 0.00 | 0.10 | 0.10 | 92 | 1013.7 |
| 20260505033056 | 23 | 340 | 0.0 | 4.8 | 0.00 | 0.10 | 0.10 | 92 | 1013.6 |
| 20260505032514 | 23 | 343 | 0.0 | 3.2 | 0.00 | 0.10 | 0.10 | 92 | 1013.6 |
| 20260505032014 | 23 | 307 | 0.0 | 4.8 | 0.00 | 0.10 | 0.10 | 92 | 1013.8 |
| 20260505031548 | 23 | 306 | 1.6 | 4.8 | 0.00 | 0.10 | 0.10 | 91 | 1013.5 |
| 20260505031017 | 23 | 290 | 1.6 | 4.8 | 0.00 | 0.10 | 0.10 | 91 | 1013.5 |
| 20260505030514 | 23 | 304 | 3.2 | 4.8 | 0.00 | 0.10 | 0.10 | 91 | 1013.4 |
| 20260505030055 | 23 | 295 | 0.0 | 4.8 | 0.00 | 0.10 | 0.10 | 91 | 1013.3 |
| 20260505025518 | 23 | 287 | 0.0 | 4.8 | 0.00 | 0.10 | 0.10 | 91 | 1013.3 |
| 20260505025016 | 23 | 287 | 1.6 | 4.8 | 0.00 | 0.10 | 0.10 | 90 | 1013.2 |
| 20260505024552 | 23 | 285 | 0.0 | 4.8 | 0.00 | 0.10 | 0.10 | 91 | 1013.2 |
| 20260505024013 | 23 | 285 | 1.6 | 6.4 | 0.00 | 0.10 | 0.10 | 90 | 1013.2 |
| 20260505023514 | 24 | 328 | 0.0 | 6.4 | 0.00 | 0.10 | 0.10 | 90 | 1013.2 |
| 20260505023055 | 24 | 313 | 0.0 | 4.8 | 0.00 | 0.10 | 0.10 | 91 | 1013.2 |
| 20260505022515 | 23 | 343 | 0.0 | 4.8 | 0.08 | 0.10 | 0.10 | 92 | 1013.1 |
| 20260505022014 | 23 | 318 | 1.6 | 4.8 | 0.08 | 0.10 | 0.10 | 91 | 1013.1 |
| 20260505021551 | 23 | 319 | 1.6 | 4.8 | 0.08 | 0.10 | 0.10 | 92 | 1013.1 |
| 20260505021015 | 23 | 84 | 0.0 | 0.0 | 0.10 | 0.10 | 0.10 | 94 | 1013.1 |
| 20260505020516 | 23 | 84 | 0.0 | 0.0 | 0.10 | 0.10 | 0.10 | 96 | 1013.1 |
| 20260505020053 | 23 | 86 | 0.0 | 0.0 | 0.10 | 0.10 | 0.10 | 96 | 1013.1 |
| 20260505015514 | 23 | 84 | 0.0 | 1.6 | 0.10 | 0.10 | 0.10 | 96 | 1013.3 |
| 20260505015018 | 23 | 84 | 0.0 | 1.6 | 0.10 | 0.10 | 0.10 | 96 | 1013.4 |
| 20260505014548 | 23 | 94 | 0.0 | 4.8 | 0.10 | 0.10 | 0.10 | 96 | 1013.4 |
| 20260505014016 | 23 | 67 | 0.0 | 3.2 | 0.10 | 0.10 | 0.10 | 96 | 1013.5 |
| 20260505013514 | 23 | 65 | 0.0 | 4.8 | 0.10 | 0.10 | 0.10 | 95 | 1013.5 |
| 20260505013055 | 23 | 88 | 0.0 | 4.8 | 0.10 | 0.10 | 0.10 | 94 | 1013.6 |
| 20260505012515 | 23 | 86 | 0.0 | 4.8 | 0.05 | 0.05 | 0.05 | 94 | 1013.6 |
| 20260505012015 | 23 | 74 | 0.0 | 4.8 | 0.05 | 0.05 | 0.05 | 93 | 1013.7 |
| 20260505011611 | 23 | 93 | 1.6 | 6.4 | 0.03 | 0.03 | 0.03 | 92 | 1013.9 |
| 20260505011016 | 24 | 54 | 0.0 | 4.8 | 0.03 | 0.03 | 0.03 | 91 | 1013.9 |
| 20260505010521 | 24 | 72 | 0.0 | 3.2 | 0.00 | 0.00 | 0.00 | 91 | 1014.1 |
| 20260505010059 | 24 | 318 | 0.0 | 3.2 | 0.00 | 0.00 | 0.00 | 90 | 1014.1 |
| 20260505005518 | 24 | 318 | 0.0 | 6.4 | 0.00 | 0.00 | 0.00 | 89 | 1014.2 |
| 20260505005016 | 24 | 317 | 3.2 | 6.4 | 0.00 | 0.00 | 0.00 | 88 | 1014.1 |
| 20260505004604 | 24 | 311 | 3.2 | 6.4 | 0.00 | 0.00 | 0.00 | 88 | 1014.1 |
| 20260505004015 | 24 | 275 | 1.6 | 6.4 | 0.00 | 0.00 | 0.00 | 88 | 1014.1 |
| 20260505003518 | 24 | 279 | 3.2 | 8.0 | 0.00 | 0.00 | 0.00 | 88 | 1014.1 |
| 20260505003055 | 24 | 278 | 1.6 | 11.3 | 0.00 | 0.00 | 0.00 | 87 | 1014.2 |
| 20260505002515 | 25 | 271 | 3.2 | 8.0 | 0.00 | 0.00 | 0.00 | 86 | 1014.3 |
| 20260505002019 | 25 | 294 | 3.2 | 11.3 | 0.00 | 0.00 | 0.00 | 85 | 1014.3 |
| 20260505001606 | 25 | 262 | 4.8 | 11.3 | 0.00 | 0.00 | 0.00 | 85 | 1014.4 |
| 20260505001017 | 25 | 294 | 3.2 | 8.0 | 0.00 | 0.00 | 0.00 | 85 | 1014.4 |
| 20260505000516 | 25 | 237 | 1.6 | 12.9 | 0.00 | 0.00 | 0.00 | 85 | 1014.5 |
| 20260505000110 | 25 | 275 | 4.8 | 12.9 | 0.00 | 0.00 | 0.00 | 85 | 1014.5 |
| 20260504235515 | 25 | 241 | 4.8 | 8.0 | 0.00 | 0.00 | 0.00 | 84 | 1014.5 |
| 20260504235014 | 25 | 305 | 4.8 | 8.0 | 0.00 | 0.00 | 0.00 | 84 | 1014.4 |
| 20260504234557 | 25 | 323 | 4.8 | 8.0 | 0.00 | 0.00 | 0.00 | 84 | 1014.6 |
| 20260504234016 | 25 | 250 | 6.4 | 11.3 | 0.00 | 0.00 | 0.00 | 84 | 1014.6 |
| 20260504233519 | 25 | 252 | 3.2 | 12.9 | 0.00 | 0.00 | 0.00 | 84 | 1014.6 |
| 20260504233113 | 25 | 292 | 4.8 | 12.9 | 0.00 | 0.00 | 0.00 | 83 | 1014.6 |
| 20260504232517 | 26 | 315 | 4.8 | 12.9 | 0.00 | 0.00 | 0.00 | 84 | 1014.7 |
| 20260504232017 | 26 | 322 | 6.4 | 12.9 | 0.00 | 0.00 | 0.00 | 84 | 1014.7 |
| 20260504231559 | 26 | 245 | 6.4 | 12.9 | 0.00 | 0.00 | 0.00 | 83 | 1014.7 |
| 20260504231017 | 26 | 292 | 3.2 | 11.3 | 0.00 | 0.00 | 0.00 | 84 | 1014.7 |
| 20260504230522 | 26 | 315 | 4.8 | 9.7 | 0.00 | 0.00 | 0.00 | 82 | 1014.7 |
| 20260504230109 | 26 | 279 | 3.2 | 12.9 | 0.00 | 0.00 | 0.00 | 81 | 1014.8 |
| 20260504225519 | 26 | 321 | 4.8 | 12.9 | 0.00 | 0.00 | 0.00 | 82 | 1014.9 |
| 20260504225015 | 26 | 283 | 4.8 | 12.9 | 0.00 | 0.00 | 0.00 | 82 | 1014.8 |
| 20260504224558 | 26 | 294 | 6.4 | 14.5 | 0.00 | 0.00 | 0.00 | 81 | 1014.8 |
| 20260504224018 | 26 | 309 | 3.2 | 9.7 | 0.00 | 0.00 | 0.00 | 83 | 1014.9 |
| 20260504223518 | 26 | 297 | 4.8 | 11.3 | 0.00 | 0.00 | 0.00 | 83 | 1015.0 |
| 20260504223058 | 26 | 263 | 4.8 | 9.7 | 0.00 | 0.00 | 0.00 | 82 | 1015.0 |
| 20260504222518 | 26 | 327 | 3.2 | 8.0 | 0.00 | 0.00 | 0.00 | 83 | 1015.1 |
| 20260504222019 | 26 | 340 | 3.2 | 9.7 | 0.00 | 0.00 | 0.00 | 83 | 1015.2 |
| 20260504221552 | 26 | 329 | 6.4 | 9.7 | 0.00 | 0.00 | 0.00 | 81 | 1015.1 |
| 20260504221017 | 26 | 257 | 4.8 | 8.0 | 0.00 | 0.00 | 0.00 | 83 | 1015.2 |
| 20260504220517 | 25 | 309 | 3.2 | 8.0 | 0.00 | 0.00 | 0.00 | 83 | 1015.2 |
| 20260504220058 | 25 | 265 | 3.2 | 9.7 | 0.00 | 0.00 | 0.00 | 84 | 1015.3 |
| 20260504215516 | 25 | 311 | 4.8 | 9.7 | 0.00 | 0.00 | 0.00 | 84 | 1015.3 |
| 20260504215017 | 25 | 317 | 3.2 | 6.4 | 0.00 | 0.00 | 0.00 | 84 | 1015.3 |
| 20260504214600 | 25 | 269 | 3.2 | 6.4 | 0.00 | 0.00 | 0.00 | 84 | 1015.4 |
| 20260504214015 | 25 | 331 | 3.2 | 8.0 | 0.00 | 0.00 | 0.00 | 83 | 1015.4 |
| 20260504213511 | 25 | 330 | 3.2 | 8.0 | 0.00 | 0.00 | 0.00 | 82 | 1015.4 |
| 20260504213033 | 25 | 256 | 1.6 | 8.0 | 0.00 | 0.00 | 0.00 | 83 | 1015.5 |
| 20260504212510 | 26 | 288 | 3.2 | 11.3 | 0.00 | 0.00 | 0.00 | 82 | 1015.4 |
| 20260504212009 | 26 | 9 | 4.8 | 11.3 | 0.00 | 0.00 | 0.00 | 82 | 1015.5 |
| 20260504211531 | 26 | 270 | 4.8 | 9.7 | 0.00 | 0.00 | 0.00 | 82 | 1015.5 |
| 20260504211011 | 25 | 320 | 4.8 | 9.7 | 0.00 | 0.00 | 0.00 | 82 | 1015.6 |
| 20260504210511 | 25 | 337 | 3.2 | 8.0 | 0.00 | 0.00 | 0.00 | 85 | 1015.6 |
| 20260504210031 | 25 | 282 | 3.2 | 8.0 | 0.00 | 0.00 | 0.00 | 83 | 1015.6 |
| 20260504205510 | 25 | 290 | 3.2 | 8.0 | 0.00 | 0.00 | 0.00 | 84 | 1015.6 |
| 20260504205011 | 25 | 309 | 4.8 | 9.7 | 0.00 | 0.00 | 0.00 | 84 | 1015.6 |
| 20260504204529 | 25 | 327 | 3.2 | 9.7 | 0.00 | 0.00 | 0.00 | 84 | 1015.6 |
| 20260504204011 | 25 | 288 | 3.2 | 8.0 | 0.00 | 0.00 | 0.00 | 84 | 1015.5 |
| 20260504203513 | 25 | 314 | 3.2 | 8.0 | 0.00 | 0.00 | 0.00 | 83 | 1015.6 |
| 20260504203033 | 25 | 273 | 3.2 | 8.0 | 0.00 | 0.00 | 0.00 | 84 | 1015.7 |
| 20260504202512 | 25 | 265 | 4.8 | 8.0 | 0.00 | 0.00 | 0.00 | 84 | 1015.5 |
| 20260504202009 | 25 | 335 | 3.2 | 8.0 | 0.00 | 0.00 | 0.00 | 84 | 1015.5 |
| 20260504201532 | 25 | 277 | 1.6 | 6.4 | 0.00 | 0.00 | 0.00 | 85 | 1015.5 |
| 20260504201013 | 25 | 274 | 1.6 | 8.0 | 0.00 | 0.00 | 0.00 | 84 | 1015.6 |
| 20260504200510 | 25 | 259 | 1.6 | 6.4 | 0.00 | 0.00 | 0.00 | 82 | 1015.6 |
| 20260504200032 | 25 | 292 | 3.2 | 6.4 | 0.00 | 0.00 | 0.00 | 83 | 1015.5 |
| 20260504195511 | 25 | 273 | 1.6 | 6.4 | 0.00 | 0.00 | 0.00 | 83 | 1015.5 |
| 20260504195012 | 25 | 266 | 1.6 | 9.7 | 0.00 | 0.00 | 0.00 | 84 | 1015.5 |
| 20260504194532 | 25 | 282 | 3.2 | 9.7 | 0.00 | 0.00 | 0.00 | 85 | 1015.6 |
| 20260504194012 | 25 | 351 | 1.6 | 4.8 | 0.00 | 0.00 | 0.00 | 83 | 1015.4 |
| 20260504193511 | 25 | 294 | 3.2 | 4.8 | 0.00 | 0.00 | 0.00 | 84 | 1015.5 |
| 20260504193031 | 25 | 281 | 1.6 | 9.7 | 0.00 | 0.00 | 0.00 | 86 | 1015.6 |
| 20260504192512 | 25 | 298 | 3.2 | 9.7 | 0.00 | 0.00 | 0.00 | 84 | 1015.6 |
| 20260504192010 | 25 | 300 | 3.2 | 6.4 | 0.00 | 0.00 | 0.00 | 85 | 1015.5 |
| 20260504191529 | 25 | 313 | 4.8 | 6.4 | 0.00 | 0.00 | 0.00 | 85 | 1015.5 |
| 20260504191009 | 25 | 316 | 3.2 | 8.0 | 0.00 | 0.00 | 0.00 | 86 | 1015.4 |
| 20260504190513 | 24 | 308 | 1.6 | 8.0 | 0.00 | 0.00 | 0.00 | 86 | 1015.6 |
| 20260504190034 | 24 | 335 | 3.2 | 8.0 | 0.00 | 0.00 | 0.00 | 85 | 1015.5 |
| 20260504185511 | 24 | 323 | 3.2 | 6.4 | 0.00 | 0.00 | 0.00 | 86 | 1015.5 |
| 20260504185011 | 24 | 291 | 1.6 | 6.4 | 0.00 | 0.00 | 0.00 | 84 | 1015.7 |
| 20260504184530 | 24 | 311 | 1.6 | 4.8 | 0.00 | 0.00 | 0.00 | 84 | 1015.6 |
| 20260504184014 | 23 | 309 | 1.6 | 4.8 | 0.00 | 0.00 | 0.00 | 85 | 1015.5 |
| 20260504183513 | 23 | 307 | 1.6 | 4.8 | 0.00 | 0.00 | 0.00 | 85 | 1015.3 |
| 20260504183037 | 23 | 313 | 1.6 | 4.8 | 0.00 | 0.00 | 0.00 | 86 | 1015.3 |
| 20260504182513 | 23 | 313 | 1.6 | 4.8 | 0.00 | 0.00 | 0.00 | 87 | 1015.3 |
| 20260504182013 | 23 | 313 | 0.0 | 4.8 | 0.00 | 0.00 | 0.00 | 87 | 1015.3 |
| 20260504181529 | 23 | 313 | 1.6 | 4.8 | 0.00 | 0.00 | 0.00 | 87 | 1015.3 |
| 20260504181014 | 23 | 312 | 1.6 | 3.2 | 0.00 | 0.00 | 0.00 | 88 | 1015.1 |
| 20260504180510 | 22 | 52 | 0.0 | 3.2 | 0.00 | 0.00 | 0.00 | 88 | 1015.2 |
| 20260504180031 | 22 | 53 | 0.0 | 3.2 | 0.00 | 0.00 | 0.00 | 89 | 1015.1 |
| 20260504175517 | 22 | 88 | 0.0 | 1.6 | 0.00 | 0.00 | 0.00 | 91 | 1015.1 |
| 20260504175017 | 21 | 94 | 0.0 | 1.6 | 0.00 | 0.00 | 0.00 | 91 | 1015.1 |
| 20260504174530 | 21 | 94 | 0.0 | 1.6 | 0.00 | 0.00 | 0.00 | 92 | 1015.1 |
| 20260504174010 | 21 | 92 | 0.0 | 1.6 | 0.00 | 0.00 | 0.00 | 92 | 1015.0 |
| 20260504173511 | 21 | 93 | 0.0 | 1.6 | 0.00 | 0.00 | 0.00 | 92 | 1015.0 |
| 20260504173032 | 21 | 93 | 0.0 | 3.2 | 0.00 | 0.00 | 0.00 | 91 | 1014.9 |
| 20260504172509 | 21 | 92 | 0.0 | 3.2 | 0.00 | 0.00 | 0.00 | 91 | 1014.9 |
| 20260504172014 | 21 | 101 | 0.0 | 1.6 | 0.00 | 0.00 | 0.00 | 91 | 1014.9 |
| 20260504171544 | 20 | 101 | 0.0 | 3.2 | 0.00 | 0.00 | 0.00 | 90 | 1014.9 |
| 20260504171010 | 20 | 86 | 0.0 | 3.2 | 0.00 | 0.00 | 0.00 | 90 | 1015.0 |
| 20260504170518 | 20 | 96 | 0.0 | 4.8 | 0.00 | 0.00 | 0.00 | 89 | 1015.0 |
| 20260504151013 | 20 | 105 | 3.2 | 6.4 | 0.00 | 0.00 | 0.00 | 91 | 1013.8 |
| 20260504150512 | 20 | 90 | 3.2 | 9.7 | 0.00 | 0.00 | 0.00 | 92 | 1013.6 |
| 20260504141010 | 21 | 126 | 1.6 | 6.4 | 0.00 | 0.00 | 0.00 | 92 | 1013.4 |
| 20260504140513 | 21 | 105 | 0.0 | 4.8 | 0.00 | 0.00 | 0.00 | 91 | 1013.4 |
| 20260504130511 | 21 | 113 | 1.6 | 9.7 | 0.00 | 0.00 | 0.00 | 85 | 1013.3 |